2021-091A (49315 NORAD) Tracking and Keplerian Element Data

This shows tracking and keplerian element data for the satellite.

Feedback or suggestion? Click here.




ElementValue
Catalog49315
Name2021-091A
Epoch Orbit800
Epoch Day340.1514459
Epoch Year2021
RAAN165.3185
Inclination97.4661
Eccentricity0.0019227
Argument of Perigee96.0642
Mean Anonmoly329.89
Mean Motion15.18763616
Decay Rate1.009E-05
L11 49315U 21091A 21340.15144590 .00001009 00000+0 51640-4 0 9993
L22 49315 97.4661 165.3185 0019227 96.0642 329.8900 15.18763616 8007

Live tracking and technical data element details for 2021-091A (NORAD 49315). 2021-091A can be tracked NOW for your location showing map with azimuth and elevation plus other details from your city location.

Track the satellite on the map from your city or location and see movement details for azimuth, elevation, latitude, longitude, range, height, and movement on the map or in text.







IsCatalogInMostPopularTable: catalog: 49315, numindb: 8
Update: records affected: 1



GetName: 49315 2021-091A

Hit Count: updated at: Mon, 06 Dec 2021 15:42:12 GMT